Vorticity
6 7 6 6 6 6 5 5 5 5 4 6 5 5 5 5 6 8 6 8 8 8 11 8 -4 6 7 1 20 -2 5 12 8 14 10 11 6 6
6 6 6 6 5 5 5 5 5 4 4 6 5 6 5 6 6 7 8 8 8 4 5 1 10 -3 7 4 7 1 5 13 10 14 11 9 6 6
7 6 6 6 6 6 5 5 5 5 5 5 6 5 6 6 6 7 10 10 7 5 2 13 6 17 -3 1 16 9 4 14 11 15 8 9 6 7
6 5 5 5 5 4 4 5 5 5 6 7 6 7 7 7 6 8 9 11 7 7 5 1 -4 -5 17 3 13 11 6 11 15 12 11 8 7 6
5 5 6 5 4 5 5 4 5 5 5 5 5 8 5 7 13 8 9 6 4 3 3 9 6 19 10 8 11 12 8 11 14 13 9 8 6 6
6 6 6 5 5 5 4 5 5 5 6 8 6 8 6 17 17 15 -3 -6 11 22 -3 19 -2 -4 -2 24 14 17 10 14 14 12 9 7 6 7
5 5 5 6 6 5 4 5 5 4 5 6 -1 5 15 1 4 5 6 8 16 -1 4 -1 16 6 -4 11 11 23 9 14 15 10 9 7 5 7
4 5 6 6 6 9 4 6 8 2 10 -0 24 -2 6 -2 10 -1 -1 16 5 8 -6 4 14 4 6 12 10 18 8 14 11 10 8 7 6 8
6 6 8 8 11 13 9 17 3 4 22 -9 16 7 11 3 9 -13 14 -4 3 16 24 13 3 9 27 12 13 14 10 17 12 9 8 6 6 8
8 4 9 2 3 16 2 15 -0 8 3 3 11 4 -12 24 29 16 12 16 1 6 11 6 4 10 13 15 15 15 15 13 14 9 7 6 6 9
16 9 8 3 22 18 5 -9 20 5 15 -7 27 15 -4 20 -1 42 22 8 3 4 4 11 12 6 12 8 18 11 17 20 8 9 6 7 7 9
23 4 15 17 20 -5 18 19 11 37 8 2 35 -6 15 10 5 21 2 11 14 18 7 6 4 18 7 18 18 14 17 16 7 8 7 6 7 9
18 19 18 19 20 19 19 17 17 10 12 15 3 12 2 10 12 4 1 30 7 -0 -6 19 3 11 11 20 17 15 19 14 8 8 7 7 7 10
4 2 2 2 2 3 3 3 4 5 9 12 7 9 6 8 5 -8 22 3 1 -8 19 -5 6 19 14 19 15 15 18 11 8 7 7 7 8 8
3 2 3 4 4 5 5 5 5 5 6 7 9 13 15 14 19 1 30 14 5 3 23 7 22 10 17 18 16 20 17 6 7 7 7 7 7 9
13 9 8 8 9 8 9 10 11 12 13 14 15 14 15 18 15 12 15 14 13 12 13 9 14 15 21 17 16 19 11 4 8 8 7 9 9 11
14 14 11 13 14 16 14 13 12 12 12 13 16 16 17 15 18 13 4 16 10 12 17 13 11 18 14 14 17 18 9 6 8 7 9 8 9 12
11 13 13 11 13 14 13 13 14 14 16 16 16 16 18 16 7 10 9 6 6 17 14 12 15 15 13 13 23 16 7 5 8 9 8 8 10 13
23 19 16 13 12 11 11 10 10 11 10 11 14 14 18 15 9 9 11 15 15 18 15 17 14 14 16 17 14 12 2 9 8 9 8 9 11 13
14 16 19 21 21 20 20 17 13 13 14 14 14 16 14 12 9 10 10 11 16 15 15 11 12 16 15 19 19 7 5 9 8 8 9 11 11 14
12 12 12 12 12 12 14 18 22 21 15 15 17 15 13 10 12 14 19 19 16 13 11 11 16 12 14 20 15 7 9 9 8 9 10 11 13 13
14 14 13 14 14 15 15 16 14 17 17 19 14 13 13 9 10 9 15 14 14 13 13 13 13 14 18 18 7 6 11 8 9 11 10 12 12 13
13 14 14 13 13 16 17 18 18 14 14 13 12 11 10 12 15 19 15 10 12 11 11 12 13 13 19 13 3 10 8 10 11 11 12 14 13 11
Height
3163 3163 3163 3163 3163 3162 3161 3160 3158 3157 3157 3158 3155 3153 3151 3149 3146 3143 3140 3137 3133 3130 3127 3123 3119 3114 3110 3105 3099 3094 3088 3082 3076 3071 3066 3061 3055 3049
3157 3157 3158 3158 3157 3156 3156 3155 3153 3151 3149 3149 3148 3146 3144 3142 3139 3136 3133 3130 3127 3124 3121 3117 3113 3108 3103 3098 3093 3088 3082 3076 3070 3064 3060 3055 3049 3044
3152 3151 3152 3151 3150 3150 3149 3148 3147 3144 3142 3142 3141 3139 3136 3134 3131 3128 3125 3123 3120 3117 3113 3110 3106 3102 3097 3091 3086 3080 3075 3069 3063 3058 3054 3050 3044 3040
3145 3144 3145 3143 3143 3142 3141 3140 3139 3137 3134 3133 3131 3131 3128 3126 3123 3121 3118 3115 3112 3110 3107 3104 3100 3095 3090 3084 3079 3074 3068 3062 3056 3053 3048 3045 3038 3033
3137 3136 3137 3135 3136 3135 3134 3132 3131 3129 3127 3124 3122 3121 3119 3117 3115 3113 3110 3108 3105 3102 3099 3095 3092 3087 3083 3077 3072 3067 3061 3054 3050 3046 3042 3039 3033 3028
3128 3128 3128 3127 3127 3127 3125 3124 3122 3120 3118 3115 3113 3112 3110 3109 3106 3104 3102 3099 3097 3093 3091 3087 3084 3079 3075 3068 3063 3058 3053 3047 3042 3039 3035 3032 3028 3022
3118 3118 3118 3118 3118 3117 3115 3114 3112 3110 3107 3106 3103 3101 3100 3099 3098 3096 3093 3090 3087 3084 3082 3078 3073 3071 3065 3059 3054 3050 3045 3039 3035 3033 3030 3027 3022 3017
3106 3107 3106 3107 3106 3106 3105 3104 3102 3100 3097 3095 3094 3091 3092 3090 3089 3086 3082 3080 3075 3075 3071 3068 3063 3060 3055 3050 3045 3041 3036 3031 3029 3027 3025 3022 3018 3013
3094 3094 3094 3095 3095 3094 3093 3092 3090 3090 3087 3086 3082 3081 3080 3080 3080 3075 3072 3070 3067 3064 3060 3057 3054 3050 3043 3040 3035 3032 3028 3025 3023 3021 3018 3015 3011 3007
3082 3083 3082 3083 3083 3083 3082 3078 3078 3077 3078 3076 3072 3072 3070 3068 3065 3061 3060 3059 3056 3052 3048 3044 3042 3038 3033 3030 3026 3024 3020 3018 3016 3014 3011 3009 3005 3001
3069 3069 3069 3070 3070 3071 3067 3064 3062 3062 3063 3063 3059 3056 3057 3057 3054 3051 3050 3047 3045 3041 3038 3034 3033 3027 3024 3021 3017 3014 3011 3009 3009 3007 3005 3003 3000 2996
3056 3056 3055 3055 3055 3054 3052 3050 3047 3050 3048 3049 3046 3044 3044 3042 3041 3041 3039 3037 3034 3029 3028 3024 3022 3018 3014 3011 3007 3005 3003 3002 3000 3000 2999 2997 2994 2990
3043 3044 3043 3043 3042 3040 3038 3037 3037 3037 3035 3035 3034 3032 3032 3030 3030 3029 3028 3024 3016 3018 3018 3014 3011 3008 3004 3000 2998 2996 2994 2994 2994 2994 2993 2990 2988 2985
3031 3031 3031 3030 3030 3029 3028 3027 3026 3023 3023 3022 3021 3020 3019 3018 3018 3017 3012 3012 3011 3009 3007 3003 3000 2997 2993 2990 2989 2988 2987 2988 2988 2986 2985 2984 2982 2979
3016 3016 3016 3015 3015 3014 3014 3013 3011 3010 3010 3009 3008 3006 3005 3004 3002 3002 3000 2999 2998 2997 2994 2992 2988 2985 2983 2981 2981 2979 2980 2981 2980 2980 2979 2978 2975 2973
3000 2999 2999 2999 2999 2998 2997 2997 2995 2994 2994 2993 2993 2991 2990 2990 2989 2988 2986 2986 2984 2983 2980 2978 2976 2974 2973 2972 2972 2971 2973 2973 2973 2973 2973 2973 2971 2967
2984 2983 2983 2982 2982 2982 2981 2980 2979 2979 2979 2978 2977 2977 2976 2976 2975 2975 2974 2973 2971 2971 2968 2966 2965 2964 2964 2963 2963 2964 2966 2967 2968 2968 2967 2964 2964 2963
2967 2967 2967 2966 2965 2965 2965 2964 2963 2963 2963 2963 2962 2962 2963 2963 2962 2962 2961 2960 2959 2957 2956 2956 2955 2955 2955 2956 2957 2956 2959 2961 2962 2962 2959 2957 2956 2956
2951 2952 2950 2950 2949 2948 2948 2948 2948 2948 2948 2948 2948 2949 2950 2950 2950 2949 2948 2947 2946 2945 2945 2945 2945 2946 2946 2948 2949 2950 2952 2954 2954 2956 2954 2952 2951 2950
2937 2935 2934 2933 2933 2933 2932 2931 2932 2932 2933 2933 2934 2935 2936 2936 2936 2936 2936 2936 2935 2935 2935 2935 2936 2937 2938 2940 2940 2942 2946 2948 2948 2948 2947 2946 2945 2945
2922 2921 2920 2919 2919 2918 2917 2916 2916 2917 2918 2919 2920 2921 2923 2923 2924 2924 2925 2925 2925 2925 2926 2927 2929 2929 2930 2930 2932 2937 2941 2941 2941 2940 2940 2940 2939 2939
2908 2907 2906 2905 2904 2903 2902 2902 2902 2902 2903 2905 2908 2909 2910 2911 2912 2913 2913 2913 2914 2916 2917 2919 2920 2921 2923 2924 2926 2930 2935 2936 2935 2935 2934 2935 2935 2935
2894 2893 2892 2891 2890 2890 2890 2889 2889 2889 2890 2892 2895 2897 2898 2899 2900 2901 2901 2901 2903 2906 2908 2911 2913 2915 2916 2918 2921 2925 2928 2930 2930 2929 2929 2929 2930 2930